Location: *
(2.7500°S, 66.6833°W)
Time: 03:02:05
(UTC+00:00)

Cosmos 2233 Rocket - Pass Details

Date: 24 May 2024
Orbit: 954 x 989 km, 82.9° (Epoch: 23 June)

Event Time Altitude Azimuth Distance (km) Brightness Sun altitude
Rises 23:07:57 0° 10° (N) 3,683 7.2 -11.3°
Reaches altitude 10° 23:10:35 10° 17° (NNE) 2,736 6.4 -11.9°
Maximum altitude 23:16:30 44° 87° (E) 1,336 4.3 -13.3°
Drops below altitude 10° 23:22:24 10° 158° (SSE) 2,733 5.9 -14.7°
Enters shadow 23:23:37 - 161° (SSE) 3,168 6.3 -15.0°
